This demonstration page uses our WeatherBlox Daily Observations layout. Learn more.

Left ArrowRight Arrow

39.08367, -84.50855

Hourly Observations for November 9, 2022

Temp ( °F °C ) Dew Point ( °F °C ) Humidity (%) Winds ( mph kmh ) Pressure ( in mb ) Visibility ( mi km ) Precip ( " mm )
12:53 am 00:53 Clear 38 3.3 34 1.1 85 85 Calm 30.45 1031 10 16 0.00 0.00
1:53 am 01:53 Clear 37 2.8 33 0.6 85 85 NE 3 6 30.44 1031 10 16 0.00 0.00
2:53 am 02:53 Clear 35 1.7 33 0.6 92 92 NE 5 7 30.42 1030 10 16 0.00 0.00
3:53 am 03:53 Clear 35 1.7 33 0.6 92 92 NE 3 6 30.41 1030 10 16 0.00 0.00
4:53 am 04:53 Clear 34 1.1 32 0 92 92 ENE 3 6 30.41 1030 10 16 0.00 0.00
5:53 am 05:53 Clear 34 1.1 33 0.6 96 96 NNE 3 6 30.41 1030 10 16 0.00 0.00
6:53 am 06:53 Clear 34 1.1 32 0 92 92 NE 3 6 30.42 1030 10 16 0.00 0.00
7:53 am 07:53 Sunny 35 1.7 34 1.1 96 96 Calm 30.42 1030 10 16 0.00 0.00
8:53 am 08:53 Sunny 42 5.6 37 2.8 82 82 Calm 30.43 1030 10 16 0.00 0.00
9:53 am 09:53 Sunny 50 10 37 2.8 61 61 Calm 30.42 1030 8 13 0.00 0.00
10:53 am 10:53 Sunny 59 15 38 3.3 45 45 WSW 3 6 30.40 1029 9 14 0.00 0.00
11:20 am 11:20 Sunny 63 17.2 32 0 31 31 S 6 9 30.37 1029 10 16 0.00 0.00
11:53 am 11:53 Sunny 65 18.3 34 1.1 31 31 VRB 5 7 30.37 1029 10 16 0.00 0.00
12:53 pm 12:53 Sunny 69 20.6 32 0 25 25 Calm 30.35 1028 10 16 0.00 0.00
1:53 pm 13:53 Sunny 72 22.2 33 0.6 24 24 Calm 30.31 1026 10 16 0.00 0.00
2:53 pm 14:53 Sunny 69 20.6 34 1.1 27 27 VRB 3 6 30.29 1026 10 16 0.00 0.00
3:53 pm 15:53 Sunny 74 23.3 32 0 21 21 Calm 30.28 1025 10 16 0.00 0.00
4:53 pm 16:53 Sunny 72 22.2 31 -0.6 22 22 SSE 3 6 30.27 1025 10 16 0.00 0.00
5:53 pm 17:53 Clear 60 15.6 37 2.8 42 42 Calm 30.27 1025 10 16 0.00 0.00
6:53 pm 18:53 Clear 53 11.7 38 3.3 56 56 Calm 30.27 1025 10 16 0.00 0.00
7:53 pm 19:53 Clear 50 10 38 3.3 63 63 Calm 30.27 1025 10 16 0.00 0.00
8:53 pm 20:53 Clear 46 7.8 39 3.9 76 76 Calm 30.27 1025 10 16 0.00 0.00
9:53 pm 21:53 Clear 47 8.3 38 3.3 71 71 Calm 30.27 1025 9 14 0.00 0.00
10:53 pm 22:53 Clear 44 6.7 39 3.9 82 82 Calm 30.26 1025 9 14 0.00 0.00
11:53 pm 23:53 Clear 44 6.7 37 2.8 76 76 Calm 30.25 1024 10 16 0.00 0.00

Powered by AerisWeather